﻿測定場所 (Monitoring sites),日付 (Measurement date),時間 (Measurement time),線量率 最大値 (max) μGy/h,線量率 最小値 (min) μGy/h,線量率 平均値 (average) μGy/h,
調布 (Chofu),2016-05-15,23:01～24:00,0.0322,0.0279,0.0298,
調布 (Chofu),2016-05-15,22:01～23:00,0.0323,0.0275,0.0296,
調布 (Chofu),2016-05-15,21:01～22:00,0.0316,0.0276,0.0294,
調布 (Chofu),2016-05-15,20:01～21:00,0.0323,0.0274,0.0297,
調布 (Chofu),2016-05-15,19:01～20:00,0.0316,0.0271,0.0295,
調布 (Chofu),2016-05-15,18:01～19:00,0.0317,0.0273,0.0296,
調布 (Chofu),2016-05-15,17:01～18:00,0.0315,0.0279,0.0298,
調布 (Chofu),2016-05-15,16:01～17:00,0.0323,0.0283,0.0302,
調布 (Chofu),2016-05-15,15:01～16:00,0.0316,0.0275,0.0298,
調布 (Chofu),2016-05-15,14:01～15:00,0.0316,0.0285,0.0301,
調布 (Chofu),2016-05-15,13:01～14:00,0.0319,0.0278,0.0299,
調布 (Chofu),2016-05-15,12:01～13:00,0.0327,0.0285,0.0302,
調布 (Chofu),2016-05-15,11:01～12:00,0.0319,0.0283,0.0302,
調布 (Chofu),2016-05-15,10:01～11:00,0.0318,0.0283,0.0300,
調布 (Chofu),2016-05-15,09:01～10:00,0.0316,0.0281,0.0300,
調布 (Chofu),2016-05-15,08:01～09:00,0.0323,0.0285,0.0302,
調布 (Chofu),2016-05-15,07:01～08:00,0.0324,0.0272,0.0299,
調布 (Chofu),2016-05-15,06:01～07:00,0.0324,0.0279,0.0300,
調布 (Chofu),2016-05-15,05:01～06:00,0.0319,0.0273,0.0297,
調布 (Chofu),2016-05-15,04:01～05:00,0.0320,0.0276,0.0295,
調布 (Chofu),2016-05-15,03:01～04:00,0.0317,0.0281,0.0297,
調布 (Chofu),2016-05-15,02:01～03:00,0.0315,0.0278,0.0297,
調布 (Chofu),2016-05-15,01:01～02:00,0.0319,0.0283,0.0300,
調布 (Chofu),2016-05-15,00:01～01:00,0.0314,0.0279,0.0297,
調布 (Chofu),2016-05-14,23:01～24:00,0.0314,0.0277,0.0297,
調布 (Chofu),2016-05-14,22:01～23:00,0.0319,0.0278,0.0296,
調布 (Chofu),2016-05-14,21:01～22:00,0.0318,0.0276,0.0299,
調布 (Chofu),2016-05-14,20:01～21:00,0.0314,0.0279,0.0294,
調布 (Chofu),2016-05-14,19:01～20:00,0.0322,0.0281,0.0296,
調布 (Chofu),2016-05-14,18:01～19:00,0.0318,0.0280,0.0297,
調布 (Chofu),2016-05-14,17:01～18:00,0.0319,0.0275,0.0297,
調布 (Chofu),2016-05-14,16:01～17:00,0.0321,0.0280,0.0298,
調布 (Chofu),2016-05-14,15:01～16:00,0.0330,0.0281,0.0298,
調布 (Chofu),2016-05-14,14:01～15:00,0.0315,0.0282,0.0298,
調布 (Chofu),2016-05-14,13:01～14:00,0.0315,0.0282,0.0298,
調布 (Chofu),2016-05-14,12:01～13:00,0.0320,0.0278,0.0297,
調布 (Chofu),2016-05-14,11:01～12:00,0.0318,0.0281,0.0300,
調布 (Chofu),2016-05-14,10:01～11:00,0.0314,0.0279,0.0299,
調布 (Chofu),2016-05-14,09:01～10:00,0.0318,0.0282,0.0298,
調布 (Chofu),2016-05-14,08:01～09:00,0.0320,0.0285,0.0301,
調布 (Chofu),2016-05-14,07:01～08:00,0.0323,0.0286,0.0301,
調布 (Chofu),2016-05-14,06:01～07:00,0.0318,0.0279,0.0302,
調布 (Chofu),2016-05-14,05:01～06:00,0.0312,0.0267,0.0297,
調布 (Chofu),2016-05-14,04:01～05:00,0.0319,0.0274,0.0298,
調布 (Chofu),2016-05-14,03:01～04:00,0.0313,0.0260,0.0294,
調布 (Chofu),2016-05-14,02:01～03:00,0.0316,0.0279,0.0296,
調布 (Chofu),2016-05-14,01:01～02:00,0.0315,0.0272,0.0293,
調布 (Chofu),2016-05-14,00:01～01:00,0.0310,0.0275,0.0292,
調布 (Chofu),2016-05-13,23:01～24:00,0.0318,0.0277,0.0293,
調布 (Chofu),2016-05-13,22:01～23:00,0.0319,0.0271,0.0294,
調布 (Chofu),2016-05-13,21:01～22:00,0.0315,0.0275,0.0294,
調布 (Chofu),2016-05-13,20:01～21:00,0.0306,0.0263,0.0289,
調布 (Chofu),2016-05-13,19:01～20:00,0.0314,0.0273,0.0292,
調布 (Chofu),2016-05-13,18:01～19:00,0.0314,0.0279,0.0296,
調布 (Chofu),2016-05-13,17:01～18:00,0.0312,0.0272,0.0293,
調布 (Chofu),2016-05-13,16:01～17:00,0.0313,0.0283,0.0293,
調布 (Chofu),2016-05-13,15:01～16:00,0.0312,0.0276,0.0291,
調布 (Chofu),2016-05-13,14:01～15:00,0.0311,0.0279,0.0294,
調布 (Chofu),2016-05-13,13:01～14:00,0.0311,0.0272,0.0291,
調布 (Chofu),2016-05-13,12:01～13:00,0.0307,0.0272,0.0289,
調布 (Chofu),2016-05-13,11:01～12:00,0.0318,0.0258,0.0291,
調布 (Chofu),2016-05-13,10:01～11:00,0.0308,0.0266,0.0289,
調布 (Chofu),2016-05-13,09:01～10:00,0.0310,0.0271,0.0291,
調布 (Chofu),2016-05-13,08:01～09:00,0.0313,0.0279,0.0293,
調布 (Chofu),2016-05-13,07:01～08:00,0.0332,0.0283,0.0304,
調布 (Chofu),2016-05-13,06:01～07:00,0.0330,0.0287,0.0309,
調布 (Chofu),2016-05-13,05:01～06:00,0.0324,0.0285,0.0308,
調布 (Chofu),2016-05-13,04:01～05:00,0.0322,0.0266,0.0295,
調布 (Chofu),2016-05-13,03:01～04:00,0.0323,0.0269,0.0290,
調布 (Chofu),2016-05-13,02:01～03:00,0.0307,0.0266,0.0289,
調布 (Chofu),2016-05-13,01:01～02:00,0.0308,0.0256,0.0289,
調布 (Chofu),2016-05-13,00:01～01:00,0.0302,0.0273,0.0290,
調布 (Chofu),2016-05-12,23:01～24:00,0.0304,0.0271,0.0290,
調布 (Chofu),2016-05-12,22:01～23:00,0.0310,0.0274,0.0292,
調布 (Chofu),2016-05-12,21:01～22:00,0.0314,0.0264,0.0290,
調布 (Chofu),2016-05-12,20:01～21:00,0.0307,0.0269,0.0288,
調布 (Chofu),2016-05-12,19:01～20:00,0.0304,0.0275,0.0289,
調布 (Chofu),2016-05-12,18:01～19:00,0.0307,0.0268,0.0291,
調布 (Chofu),2016-05-12,17:01～18:00,0.0312,0.0273,0.0292,
調布 (Chofu),2016-05-12,16:01～17:00,0.0309,0.0271,0.0292,
調布 (Chofu),2016-05-12,15:01～16:00,0.0313,0.0275,0.0291,
調布 (Chofu),2016-05-12,14:01～15:00,0.0315,0.0270,0.0291,
調布 (Chofu),2016-05-12,13:01～14:00,0.0317,0.0257,0.0288,
調布 (Chofu),2016-05-12,12:01～13:00,0.0309,0.0273,0.0289,
調布 (Chofu),2016-05-12,11:01～12:00,0.0308,0.0267,0.0286,
調布 (Chofu),2016-05-12,10:01～11:00,0.0302,0.0265,0.0287,
調布 (Chofu),2016-05-12,09:01～10:00,0.0311,0.0267,0.0287,
調布 (Chofu),2016-05-12,08:01～09:00,0.0303,0.0273,0.0288,
調布 (Chofu),2016-05-12,07:01～08:00,0.0316,0.0271,0.0290,
調布 (Chofu),2016-05-12,06:01～07:00,0.0309,0.0271,0.0289,
調布 (Chofu),2016-05-12,05:01～06:00,0.0307,0.0273,0.0288,
調布 (Chofu),2016-05-12,04:01～05:00,0.0305,0.0271,0.0288,
調布 (Chofu),2016-05-12,03:01～04:00,0.0305,0.0272,0.0289,
調布 (Chofu),2016-05-12,02:01～03:00,0.0305,0.0270,0.0289,
調布 (Chofu),2016-05-12,01:01～02:00,0.0309,0.0272,0.0289,
調布 (Chofu),2016-05-12,00:01～01:00,0.0315,0.0275,0.0292,
調布 (Chofu),2016-05-11,23:01～24:00,0.0314,0.0274,0.0292,
調布 (Chofu),2016-05-11,22:01～23:00,0.0311,0.0275,0.0292,
調布 (Chofu),2016-05-11,21:01～22:00,0.0313,0.0273,0.0293,
調布 (Chofu),2016-05-11,20:01～21:00,0.0311,0.0273,0.0293,
調布 (Chofu),2016-05-11,19:01～20:00,0.0311,0.0273,0.0291,
調布 (Chofu),2016-05-11,18:01～19:00,0.0312,0.0277,0.0294,
調布 (Chofu),2016-05-11,17:01～18:00,0.0310,0.0275,0.0293,
調布 (Chofu),2016-05-11,16:01～17:00,0.0318,0.0268,0.0294,
調布 (Chofu),2016-05-11,15:01～16:00,0.0307,0.0277,0.0292,
調布 (Chofu),2016-05-11,14:01～15:00,0.0308,0.0268,0.0291,
調布 (Chofu),2016-05-11,13:01～14:00,0.0314,0.0276,0.0295,
調布 (Chofu),2016-05-11,12:01～13:00,0.0310,0.0268,0.0291,
調布 (Chofu),2016-05-11,11:01～12:00,0.0310,0.0270,0.0286,
調布 (Chofu),2016-05-11,10:01～11:00,0.0307,0.0271,0.0289,
調布 (Chofu),2016-05-11,09:01～10:00,0.0305,0.0268,0.0286,
調布 (Chofu),2016-05-11,08:01～09:00,0.0313,0.0265,0.0287,
調布 (Chofu),2016-05-11,07:01～08:00,0.0309,0.0272,0.0291,
調布 (Chofu),2016-05-11,06:01～07:00,0.0317,0.0276,0.0295,
調布 (Chofu),2016-05-11,05:01～06:00,0.0323,0.0281,0.0305,
調布 (Chofu),2016-05-11,04:01～05:00,0.0339,0.0277,0.0309,
調布 (Chofu),2016-05-11,03:01～04:00,0.0326,0.0269,0.0293,
調布 (Chofu),2016-05-11,02:01～03:00,0.0327,0.0275,0.0292,
調布 (Chofu),2016-05-11,01:01～02:00,0.0323,0.0282,0.0305,
調布 (Chofu),2016-05-11,00:01～01:00,0.0323,0.0288,0.0308,
調布 (Chofu),2016-05-10,23:01～24:00,0.0312,0.0281,0.0297,
調布 (Chofu),2016-05-10,22:01～23:00,0.0324,0.0285,0.0306,
調布 (Chofu),2016-05-10,21:01～22:00,0.0318,0.0263,0.0294,
調布 (Chofu),2016-05-10,20:01～21:00,0.0313,0.0267,0.0291,
調布 (Chofu),2016-05-10,19:01～20:00,0.0311,0.0272,0.0292,
調布 (Chofu),2016-05-10,18:01～19:00,0.0311,0.0272,0.0293,
調布 (Chofu),2016-05-10,17:01～18:00,0.0312,0.0269,0.0288,
調布 (Chofu),2016-05-10,16:01～17:00,0.0306,0.0271,0.0289,
調布 (Chofu),2016-05-10,15:01～16:00,0.0309,0.0272,0.0288,
調布 (Chofu),2016-05-10,14:01～15:00,0.0311,0.0273,0.0292,
調布 (Chofu),2016-05-10,13:01～14:00,0.0306,0.0277,0.0292,
調布 (Chofu),2016-05-10,12:01～13:00,0.0312,0.0267,0.0291,
調布 (Chofu),2016-05-10,11:01～12:00,0.0312,0.0275,0.0292,
調布 (Chofu),2016-05-10,10:01～11:00,0.0302,0.0272,0.0287,
調布 (Chofu),2016-05-10,09:01～10:00,0.0308,0.0269,0.0288,
調布 (Chofu),2016-05-10,08:01～09:00,0.0314,0.0273,0.0288,
調布 (Chofu),2016-05-10,07:01～08:00,0.0309,0.0274,0.0291,
調布 (Chofu),2016-05-10,06:01～07:00,0.0310,0.0278,0.0292,
調布 (Chofu),2016-05-10,05:01～06:00,0.0324,0.0276,0.0299,
調布 (Chofu),2016-05-10,04:01～05:00,0.0354,0.0297,0.0323,
調布 (Chofu),2016-05-10,03:01～04:00,0.0368,0.0328,0.0342,
調布 (Chofu),2016-05-10,02:01～03:00,0.0409,0.0338,0.0370,
調布 (Chofu),2016-05-10,01:01～02:00,0.0418,0.0354,0.0387,
調布 (Chofu),2016-05-10,00:01～01:00,0.0474,0.0369,0.0420,
調布 (Chofu),2016-05-09,23:01～24:00,0.0527,0.0401,0.0463,
調布 (Chofu),2016-05-09,22:01～23:00,0.0470,0.0398,0.0443,
調布 (Chofu),2016-05-09,21:01～22:00,0.0483,0.0394,0.0440,
調布 (Chofu),2016-05-09,20:01～21:00,0.0500,0.0421,0.0453,
調布 (Chofu),2016-05-09,19:01～20:00,0.0483,0.0417,0.0448,
調布 (Chofu),2016-05-09,18:01～19:00,0.0470,0.0349,0.0402,
調布 (Chofu),2016-05-09,17:01～18:00,0.0372,0.0341,0.0357,
調布 (Chofu),2016-05-09,16:01～17:00,0.0368,0.0327,0.0346,
調布 (Chofu),2016-05-09,15:01～16:00,0.0365,0.0330,0.0347,
調布 (Chofu),2016-05-09,14:01～15:00,0.0381,0.0333,0.0355,
調布 (Chofu),2016-05-09,13:01～14:00,0.0353,0.0283,0.0319,
調布 (Chofu),2016-05-09,12:01～13:00,0.0335,0.0280,0.0299,
調布 (Chofu),2016-05-09,11:01～12:00,0.0314,0.0275,0.0300,
調布 (Chofu),2016-05-09,10:01～11:00,0.0317,0.0280,0.0300,
調布 (Chofu),2016-05-09,09:01～10:00,0.0320,0.0280,0.0301,
調布 (Chofu),2016-05-09,08:01～09:00,0.0330,0.0291,0.0305,
調布 (Chofu),2016-05-09,07:01～08:00,0.0331,0.0289,0.0310,
調布 (Chofu),2016-05-09,06:01～07:00,0.0333,0.0289,0.0307,
調布 (Chofu),2016-05-09,05:01～06:00,0.0324,0.0286,0.0304,
調布 (Chofu),2016-05-09,04:01～05:00,0.0322,0.0285,0.0303,
調布 (Chofu),2016-05-09,03:01～04:00,0.0320,0.0273,0.0302,
調布 (Chofu),2016-05-09,02:01～03:00,0.0319,0.0281,0.0301,
調布 (Chofu),2016-05-09,01:01～02:00,0.0321,0.0290,0.0302,
調布 (Chofu),2016-05-09,00:01～01:00,0.0322,0.0280,0.0302,
